London, United Kingdom

6:40 AM BST on May 28, 2017 (GMT +0100)
Heathrow

Weather History for EGLL - February, 2013

Change the Weather History Date:

Saturday, February 16, 2013

  Actual Average Record
Temperature  
Mean Temperature 44 °F -  
Max Temperature 50 °F 48 °F 54 °F (2017)
Min Temperature 38 °F 37 °F 26 °F (2016)
Degree Days  
Heating Degree Days 21    
Moisture  
Dew Point 35 °F    
Average Humidity 73    
Maximum Humidity 93    
Minimum Humidity 42    
Precipitation  
Precipitation 0.00 in - - ()
Sea Level Pressure  
Sea Level Pressure 30.22 in    
Wind  
Wind Speed 3 mph ()    
Max Wind Speed 8 mph    
Max Gust Speed -    
Visibility 7.7 miles    
Events      
Averages and records for this station are not official NWS values.
T = Trace of Precipitation, MM = Missing Value Source: Averaged Metar Reports

Daily Weather History Graph

Daily Weather History Graph

Search for Another Location

Airport or City:

Trip Planner

Search our weather history database for the weather conditions in past years. The results will help you decide how hot, cold, wet, or windy it might be!

Date:

Astronomy

Feb. 16, 2013 Rise Set
Actual Time 7:13 AM GMT 5:19 PM GMT
Civil Twilight 6:39 AM GMT 5:53 PM GMT
Nautical Twilight 6:00 AM GMT 6:32 PM GMT
Astronomical Twilight 5:21 AM GMT 7:11 PM GMT
Moon 9:27 AM GMT (2/16) No Moon Set
Length of Visible Light 11h 14m
Length of Day
10h 05m
Waxing Crescent, 37% of the Moon is Illuminated
Feb 16
Waxing Crescent
Feb 17
First Quarter
Feb 25
Full
Mar 4
Last Quarter
Mar 11
New

Hourly Weather History & Observations

Time (GMT) Temp. Windchill Dew Point Humidity Pressure Visibility Wind Dir Wind Speed Gust Speed Precip Events Conditions
12:20 AM 41.0 °F 39.0 °F 35.6 °F 81% 30.21 in - SSW 3.5 mph - N/A   Clear
12:50 AM 41.0 °F 38.0 °F 35.6 °F 81% 30.21 in - South 4.6 mph - N/A   Clear
1:20 AM 41.0 °F - 35.6 °F 81% 30.21 in 6.2 mi South 2.3 mph - N/A   Partly Cloudy
1:50 AM 41.0 °F - 35.6 °F 81% 30.21 in 6.2 mi South 2.3 mph - N/A   Unknown
2:20 AM 41.0 °F - 35.6 °F 81% 30.21 in 6.2 mi Variable 2.3 mph - N/A   Unknown
2:50 AM 40 °F - 36 °F 82% 30.22 in 11 mi WSW 1.2 mph - -   Overcast
2:50 AM 41.0 °F 39.0 °F 35.6 °F 81% 30.21 in 6.2 mi West 3.5 mph - N/A   Partly Cloudy
3:20 AM 41.0 °F - 35.6 °F 81% 30.21 in - Calm Calm - N/A   Clear
3:50 AM 41.0 °F - 35.6 °F 81% 30.21 in 6.2 mi Calm Calm - N/A   Overcast
4:20 AM 41.0 °F - 35.6 °F 81% 30.21 in - Calm Calm - N/A   Clear
4:50 AM 41.0 °F - 35.6 °F 81% 30.21 in - South 2.3 mph - N/A   Clear
5:20 AM 39.2 °F 37.0 °F 35.6 °F 87% 30.21 in - Variable 3.5 mph - N/A   Clear
5:50 AM 39 °F - 36 °F 84% 30.22 in 10 mi East 1.2 mph - -  
5:50 AM 39.2 °F 37.0 °F 35.6 °F 87% 30.21 in - South 3.5 mph - N/A   Clear
6:20 AM 39.2 °F 37.0 °F 35.6 °F 87% 30.21 in - Variable 3.5 mph - N/A   Clear
6:50 AM 39.2 °F 35.9 °F 35.6 °F 87% 30.21 in - South 4.6 mph - N/A   Clear
7:20 AM 39.2 °F 37.0 °F 35.6 °F 87% 30.21 in - Variable 3.5 mph - N/A   Clear
7:50 AM 41.0 °F 38.0 °F 35.6 °F 81% 30.24 in - SW 4.6 mph - N/A   Clear
8:20 AM 41.0 °F - 35.6 °F 81% 30.24 in - Calm Calm - N/A   Clear
8:50 AM 42 °F - 38 °F 80% 30.25 in 10 mi NW 1.2 mph - -   Overcast
8:50 AM 42.8 °F 41.1 °F 37.4 °F 81% 30.24 in - Variable 3.5 mph - N/A   Clear
9:20 AM 42.8 °F 41.1 °F 37.4 °F 81% 30.24 in - Variable 3.5 mph - N/A   Clear
9:50 AM 44.6 °F 43.1 °F 37.4 °F 76% 30.24 in - Variable 3.5 mph - N/A   Clear
10:20 AM 44.6 °F 42.2 °F 37.4 °F 76% 30.24 in - SSW 4.6 mph - N/A   Clear
10:50 AM 46.4 °F 44.3 °F 37.4 °F 71% 30.24 in - South 4.6 mph - N/A   Clear
11:20 AM 48.2 °F - 37.4 °F 66% 30.24 in - Variable 3.5 mph - N/A   Clear
11:50 AM 48 °F - 36 °F 54% 30.25 in 14 mi South 3.5 mph - -   Mostly Cloudy
11:50 AM 48.2 °F - 37.4 °F 66% 30.24 in 6.2 mi Variable 3.5 mph - N/A   Partly Cloudy
12:20 PM 50.0 °F - 37.4 °F 62% 30.24 in 6.2 mi SSW 4.6 mph - N/A   Partly Cloudy
12:50 PM 50.0 °F - 35.6 °F 58% 30.24 in 6.2 mi South 5.8 mph - N/A   Partly Cloudy
1:20 PM 50.0 °F - 33.8 °F 54% 30.21 in 6.2 mi SSW 5.8 mph - N/A   Partly Cloudy
1:50 PM 50.0 °F - 28.4 °F 43% 30.21 in - SSE 4.6 mph - N/A   Clear
2:20 PM 50.0 °F - 30.2 °F 47% 30.21 in 6.2 mi South 4.6 mph - N/A   Partly Cloudy
2:50 PM 49 °F - 33 °F 42% 30.22 in 22 mi SSW 4.6 mph - -   Overcast
2:50 PM 50.0 °F - 32.0 °F 50% 30.21 in 6.2 mi South 5.8 mph - N/A   Partly Cloudy
3:20 PM 50.0 °F - 32.0 °F 50% 30.21 in 6.2 mi SSW 6.9 mph - N/A   Partly Cloudy
3:50 PM 48.2 °F - 32.0 °F 54% 30.21 in 6.2 mi Variable 6.9 mph - N/A   Partly Cloudy
4:20 PM 48.2 °F - 32.0 °F 54% 30.21 in 6.2 mi SSW 8.1 mph - N/A   Partly Cloudy
4:50 PM 48.2 °F - 32.0 °F 54% 30.21 in - SW 6.9 mph - N/A   Clear
5:20 PM 46.4 °F 43.5 °F 33.8 °F 62% 30.21 in - SSW 5.8 mph - N/A   Clear
5:50 PM 47 °F - 33 °F 48% 30.22 in 18 mi South 8.1 mph - -   Overcast
5:50 PM 46.4 °F 42.4 °F 33.8 °F 62% 30.21 in - South 8.1 mph - N/A   Clear
6:20 PM 44.6 °F 40.2 °F 33.8 °F 66% 30.21 in - South 8.1 mph - N/A   Clear
6:50 PM 44.6 °F 40.7 °F 35.6 °F 71% 30.21 in 6.2 mi South 6.9 mph - N/A   Partly Cloudy
7:20 PM 44.6 °F 40.7 °F 35.6 °F 71% 30.21 in - South 6.9 mph - N/A   Clear
7:50 PM 44.6 °F 41.4 °F 35.6 °F 71% 30.21 in 6.2 mi South 5.8 mph - N/A   Overcast
8:20 PM 42.8 °F 40.1 °F 37.4 °F 81% 30.21 in - South 4.6 mph - N/A   Clear
8:50 PM 45 °F - 38 °F 70% 30.24 in 11 mi South 4.6 mph - -   Overcast
8:50 PM 42.8 °F 40.1 °F 37.4 °F 81% 30.21 in - SSE 4.6 mph - N/A   Clear
9:20 PM 42.8 °F 39.3 °F 37.4 °F 81% 30.24 in - SSW 5.8 mph - N/A   Clear
9:50 PM 41.0 °F 38.0 °F 37.4 °F 87% 30.24 in - South 4.6 mph - N/A   Clear
10:20 PM 41.0 °F 39.0 °F 35.6 °F 81% 30.24 in - Variable 3.5 mph - N/A   Clear
10:50 PM 39.2 °F 37.0 °F 35.6 °F 87% 30.24 in - Variable 3.5 mph - N/A   Clear
11:20 PM 39.2 °F 37.0 °F 37.4 °F 93% 30.21 in - SSE 3.5 mph - N/A   Clear
11:50 PM 38 °F - 36 °F 91% 30.23 in 5 mi ESE 3.5 mph - -   Light Haze
11:50 PM 39.2 °F 37.0 °F 35.6 °F 87% 30.21 in 5.6 mi SE 3.5 mph - N/A   Unknown